Regional Weather Roundup
Issued by NWS Wilmington, NC

Home | Current Version | Previous Version | Text Only | Print | Product List | Glossary On
Versions: 1 2 3 4 5 6 7 8 9 10 11 12 13 14 15 16 17 18 19 20 21 22 23 24 25 26 27 28 29 30 31 32 33 34 35 36 37 38 39 40 41 42 43 44 45 46 47 48 49 50
000
ASUS42 KILM 200913
RWRILM
RWRILM
REGIONAL HOURLY WEATHER ROUNDUP
NATIONAL WEATHER SERVICE WILMINGTON NC
500 AM EDT SUN AUG 20 2017

NOTE: "FAIR" INDICATES FEW OR NO CLOUDS BELOW 12,000 FEET WITH NO
SIGNIFICANT WEATHER AND/OR OBSTRUCTIONS TO VISIBILITY.

...............WFO WILMINGTON COUNTY WARNING AREA...............

......COASTAL NC AND SC COUNTIES......

CITY           SKY/WX    TMP DP  RH WIND       PRES   REMARKS
WILMINGTON     PTCLDY    75  74  96 NE3       30.00S
N MYRTLE BEACH CLEAR     80  80 100 SW5       30.00R
MYRTLE BEACH   NOT AVBL

......INLAND NC AND SC COUNTIES.......

CITY           SKY/WX    TMP DP  RH WIND       PRES   REMARKS
LUMBERTON      FOG       74  74 100 CALM      30.00R VSB 1/4
ELIZABETHTOWN  NOT AVBL
WHITEVILLE     CLOUDY    78  77  97 SW3       30.00R FOG
FLORENCE       PTCLDY    76  76 100 CALM      30.00S
DARLINGTON     PTCLDY    74  73  97 N3        30.01R FOG
KINGSTREE      FAIR      73  73 100 CALM      30.00S FOG
HARTSVILLE     FAIR      72  72 100 CALM      30.01R FOG
BENNETTSVILLE  FAIR      73  73 100 NE3       30.01R FOG
CONWAY         CLOUDY    77  77 100 CALM      30.00S FOG
GEORGETOWN     FAIR      77  77 100 SW3       30.00F
MARION         CLOUDY    77  75  94 CALM      30.00S

....................REST OF NORTH CAROLINA......................

.........EASTERN NC.........

CITY           SKY/WX    TMP DP  RH WIND       PRES   REMARKS
CAPE HATTERAS  PTCLDY    78  76  93 W5        30.01R
JACKSONVILLE   CLOUDY    73  73 100 CALM      30.02R
MOREHEAD CITY  CLOUDY    77  77 100 CALM      30.00S
KENANSVILLE    FOG       73  72  94 CALM      30.02R VSB<1/4
NEW BERN       PTCLDY    72  72 100 CALM      30.02S
ELIZABETH CITY CLEAR     74  74 100 S3        30.01R

.........CENTRAL NC.........

CITY           SKY/WX    TMP DP  RH WIND       PRES   REMARKS
RALEIGH DURHAM PTCLDY    73  71  93 CALM      30.03R
ROCKY MOUNT    FOG       71  71 100 CALM      30.02R VSB 1/4
ROANOKE RAPIDS NOT AVBL
FAYETTEVILLE   PTCLDY    73  73 100 CALM      30.01R
HOFFMAN        CLEAR     71  69  95 CALM      30.01S

.........WESTERN NC.........

CITY           SKY/WX    TMP DP  RH WIND       PRES   REMARKS
CHARLOTTE      PTCLDY    70  69  97 N5        30.05R
GREENSBORO     PTCLDY    69  68  96 CALM      30.05R
HICKORY        NOT AVBL
BOONE          NOT AVBL
ASHEVILLE      NOT AVBL

.....................REST OF SOUTH CAROLINA.....................

.........EASTERN SC.........

CITY           SKY/WX    TMP DP  RH WIND       PRES   REMARKS
CHARLESTON     PTCLDY    80  79  96 CALM      29.99S
BEAUFORT MCAS  MOCLDY    80  80 100 CALM      29.99S
HILTON HEAD    PTCLDY    79  77  94 CALM      30.00R

.........CENTRAL SC.........

CITY           SKY/WX    TMP DP  RH WIND       PRES   REMARKS
COLUMBIA       CLEAR     75  70  84 S3        30.00R
ORANGEBURG     PTCLDY    73  71  93 CALM      30.00S
SUMTER SHAW    CLEAR     74  68  80 CALM      29.98R

.........WESTERN SC.........

CITY           SKY/WX    TMP DP  RH WIND       PRES   REMARKS
GREENVILLE     NOT AVBL
ROCK HILL      FOG       70  70 100 CALM      30.05R VSB 1/2
ANDERSON       CLEAR     69  68  96 CALM      30.04R
CLEMSON        NOT AVBL
GREENWOOD      CLEAR     69  68  96 CALM      30.04S


...................COASTAL AND OFFSHORE REPORTS..................

................LOCAL PIERS AND NC RESERVE................


STATION/POSITION TIME  SKY/WX   TEMP    WIND        PRES    VSBY
                                AIR SEA DIR/SP/G
                 (UTC)          (F)     (DEG/KT/KT) (MB)    (MI)
JOHNY MRCER PIER 0836            81 83  250/  3/  4 1015.1R
NC RESRV MASNBRO NOT AVBL
OCEAN CREST PIER NOT AVBL
SPRINGMAID  PIER 0836                               1015.0S


................COASTAL AND OFFSHORE BUOYS................


STATION/POSITION TIME  SKY/WX   TEMP    WIND        PRES    VSBY
                                AIR SEA DIR/SP/G
                 (UTC)          (F)     (DEG/KT/KT) (MB)    (MI)
DIMNDSHOAL 41025 0850            82 83  280/  8/ 10 1015.7F
WVE H/P(F/S)=  3/ 9 SWL H/P/D(F/S/D)=  3/110/ 9

CAPE LOOKOUT     0900            77     250/ 12/ 17 1015.7R
ONSLOW BAY 41036 NOT AVBL
ONSLOW BAY 41064 0808            81 84  250/ 12/ 16 1015.9R
ONSLOW BAY 41159 0843               84                N/A
WVE H/P(F/S)=  4/ 8

MASNBO INL 41110 0829               83                N/A
WVE H/P(F/S)=  3/ 9

WILM HARBR 41108 0830               85                N/A
WVE H/P(F/S)=  4/ 5

27SE WRITB 41037 0808            83 84  220/ 14/ 19 1015.7R
FRYING PAN 41013 0900            84 84  230/ 12/ 14 1015.7
SUNST NRSH 41024 0808            83 85  240/ 10/ 14 1015.4F
CAPRS NRSH 41029 0808            82 86  230/ 10/ 16 1015.4F
EDISTO     41004 0900            84 84  230/ 12/ 14 1015.2


..........OFFSHORE BUOYS BEYOND 100 NM OFFSHORE...........
.....IN A TRIANGLE---HAT TO BERMUDA TO BAHAMAS TO HAT.....


STATION/POSITION TIME  SKY/WX   TEMP    WIND        PRES    VSBY
                                AIR SEA DIR/SP/G
                 (UTC)          (F)     (DEG/KT/KT) (MB)    (MI)
150E HAT   41001 0900               82  220/ 14/ 17 1016.8
W BERMUDA  41048 0900            81 82  250/  6/  6 1019.3
ATLANTIC S 41049 0850            83 85   80/ 10/ 12 1020.1R
WVE H/P(F/S)=  5/ 9 SWL H/P/D(F/S/D)=  5/130/ 9

E BAHAMAS  41046 0900            84 84   60/ 17/ 21 1015.2
NE BAHAMAS 41047 0900            83 85  140/ 10/ 12 1018.2
120E CANVRL41010 0900            83 85  150/ 10/ 12 1015.6

END



USA.gov is the U.S. government's official web portal to all federal, state and local government web resources and services.